Time,TemperatureF,DewpointF,PressureIn,WindDirection,WindDirectionDegrees,WindSpeedMPH,WindSpeedGustMPH,Humidity,HourlyPrecipIn,Conditions,Clouds,dailyrainin,SoftwareType,DateUTC
2013-03-26 00:04:00,30.6,22.6,29.97,WSW,247,2.0,3.4,72,0.00,,,0.00,WUHU21623XXSP,2013-03-26 04:04:00,
2013-03-26 00:09:00,30.6,22.6,29.97,WSW,247,2.0,3.4,72,0.00,,,0.00,WUHU21623XXSP,2013-03-26 04:09:00,
2013-03-26 00:14:00,30.6,22.6,29.98,WSW,247,1.3,2.0,72,0.00,,,0.00,WUHU21623XXSP,2013-03-26 04:14:00,
2013-03-26 00:19:00,30.4,22.4,29.97,West,270,1.8,1.8,73,0.00,,,0.00,WUHU21623XXSP,2013-03-26 04:19:00,
2013-03-26 00:24:00,30.4,22.7,29.97,West,270,2.0,2.0,73,0.00,,,0.00,WUHU21623XXSP,2013-03-26 04:24:00,
2013-03-26 00:29:00,30.6,22.9,29.98,West,270,0.0,2.0,73,0.00,,,0.00,WUHU21623XXSP,2013-03-26 04:29:00,
2013-03-26 00:34:00,30.4,22.9,29.98,West,270,0.0,0.0,73,0.00,,,0.00,WUHU21623XXSP,2013-03-26 04:34:00,
2013-03-26 00:39:00,30.6,22.7,29.98,West,270,0.0,0.0,73,0.00,,,0.00,WUHU21623XXSP,2013-03-26 04:39:00,
2013-03-26 00:44:00,30.4,23.0,29.98,West,270,1.6,1.6,74,0.00,,,0.00,WUHU21623XXSP,2013-03-26 04:44:00,
2013-03-26 00:49:00,30.4,23.0,29.99,West,270,0.0,1.6,74,0.00,,,0.00,WUHU21623XXSP,2013-03-26 04:49:00,
2013-03-26 00:54:00,30.4,23.0,29.99,West,270,0.0,1.6,74,0.00,,,0.00,WUHU21623XXSP,2013-03-26 04:54:00,
2013-03-26 00:59:00,30.4,23.0,29.99,WSW,247,0.0,0.0,74,0.00,,,0.00,WUHU21623XXSP,2013-03-26 04:59:00,
2013-03-26 01:04:00,30.4,23.0,29.99,WSW,247,0.0,0.0,74,0.00,,,0.00,WUHU21623XXSP,2013-03-26 05:04:00,
2013-03-26 01:09:00,30.4,23.0,29.99,WSW,247,4.7,4.7,74,0.00,,,0.00,WUHU21623XXSP,2013-03-26 05:09:00,
2013-03-26 01:14:00,30.4,23.4,29.99,WSW,247,0.0,4.7,75,0.00,,,0.00,WUHU21623XXSP,2013-03-26 05:14:00,
2013-03-26 01:19:00,30.4,23.4,29.99,WNW,292,0.0,0.0,75,0.00,,,0.00,WUHU21623XXSP,2013-03-26 05:19:00,
2013-03-26 01:25:00,30.4,23.4,29.99,NNW,337,0.0,0.0,75,0.00,,,0.00,WUHU21623XXSP,2013-03-26 05:25:00,
2013-03-26 01:30:00,30.4,23.4,29.99,NNW,337,6.7,6.7,75,0.00,,,0.00,WUHU21623XXSP,2013-03-26 05:30:00,
2013-03-26 01:35:00,30.4,23.4,29.99,NNW,337,6.7,6.7,75,0.00,,,0.00,WUHU21623XXSP,2013-03-26 05:35:00,
2013-03-26 01:40:00,30.2,23.5,29.98,WNW,292,1.3,6.7,76,0.00,,,0.00,WUHU21623XXSP,2013-03-26 05:40:00,
2013-03-26 01:45:00,30.2,23.5,29.98,WNW,292,0.0,1.3,76,0.00,,,0.00,WUHU21623XXSP,2013-03-26 05:45:00,
2013-03-26 01:50:00,30.0,23.6,29.98,WNW,292,0.0,0.0,77,0.00,,,0.00,WUHU21623XXSP,2013-03-26 05:50:00,
2013-03-26 01:55:00,30.0,23.6,29.98,WNW,292,0.0,0.0,77,0.00,,,0.00,WUHU21623XXSP,2013-03-26 05:55:00,
2013-03-26 02:00:00,30.0,23.6,29.98,WNW,292,0.0,0.0,77,0.00,,,0.00,WUHU21623XXSP,2013-03-26 06:00:00,
2013-03-26 02:05:00,30.0,24.0,29.98,WNW,292,0.0,0.0,78,0.00,,,0.00,WUHU21623XXSP,2013-03-26 06:05:00,
2013-03-26 02:10:00,30.0,24.0,29.98,WSW,247,0.0,0.0,78,0.00,,,0.00,WUHU21623XXSP,2013-03-26 06:10:00,
2013-03-26 02:15:00,30.0,24.0,29.98,West,270,0.0,0.0,78,0.00,,,0.00,WUHU21623XXSP,2013-03-26 06:15:00,
2013-03-26 02:20:00,30.0,24.0,29.99,West,270,0.0,0.0,78,0.00,,,0.00,WUHU21623XXSP,2013-03-26 06:20:00,
2013-03-26 02:25:00,30.0,24.0,29.99,West,270,0.0,0.0,78,0.00,,,0.00,WUHU21623XXSP,2013-03-26 06:25:00,
2013-03-26 02:30:00,30.0,24.0,29.99,West,270,0.0,0.0,79,0.00,,,0.00,WUHU21623XXSP,2013-03-26 06:30:00,
2013-03-26 02:35:00,30.0,24.3,29.99,West,270,0.0,0.0,79,0.00,,,0.00,WUHU21623XXSP,2013-03-26 06:35:00,
2013-03-26 02:40:00,29.8,24.1,29.99,West,270,0.0,0.0,79,0.00,,,0.00,WUHU21623XXSP,2013-03-26 06:40:00,
2013-03-26 02:45:00,29.8,24.1,29.99,West,270,0.0,0.0,79,0.00,,,0.00,WUHU21623XXSP,2013-03-26 06:45:00,
2013-03-26 02:50:00,29.8,24.1,29.99,West,270,0.0,0.0,79,0.00,,,0.00,WUHU21623XXSP,2013-03-26 06:50:00,
2013-03-26 02:55:00,29.8,24.1,29.99,West,270,0.0,0.0,79,0.00,,,0.00,WUHU21623XXSP,2013-03-26 06:55:00,
2013-03-26 03:00:00,29.8,24.1,29.98,West,270,0.0,0.0,79,0.00,,,0.00,WUHU21623XXSP,2013-03-26 07:00:00,
2013-03-26 03:05:00,29.8,24.1,29.99,West,270,0.0,0.0,79,0.00,,,0.00,WUHU21623XXSP,2013-03-26 07:05:00,
2013-03-26 03:10:00,30.0,24.3,29.98,West,270,0.0,0.0,79,0.00,,,0.00,WUHU21623XXSP,2013-03-26 07:10:00,
2013-03-26 03:15:00,29.8,24.1,29.98,West,270,0.0,0.0,79,0.00,,,0.00,WUHU21623XXSP,2013-03-26 07:15:00,
2013-03-26 03:20:00,29.8,24.1,29.98,West,270,0.0,0.0,79,0.00,,,0.00,WUHU21623XXSP,2013-03-26 07:20:00,
2013-03-26 03:25:00,29.8,24.1,29.98,West,270,1.6,1.6,79,0.00,,,0.00,WUHU21623XXSP,2013-03-26 07:25:00,
2013-03-26 03:30:00,30.0,24.3,29.98,West,270,2.7,2.7,79,0.00,,,0.00,WUHU21623XXSP,2013-03-26 07:30:00,
2013-03-26 03:35:00,30.0,24.3,29.98,West,270,0.0,2.7,79,0.00,,,0.00,WUHU21623XXSP,2013-03-26 07:35:00,
2013-03-26 03:40:00,30.0,24.3,29.98,WSW,247,0.0,2.7,79,0.00,,,0.00,WUHU21623XXSP,2013-03-26 07:40:00,
2013-03-26 03:47:00,30.0,24.3,29.98,WSW,247,0.0,1.6,79,0.00,,,0.00,WUHU21623XXSP,2013-03-26 07:47:00,
2013-03-26 03:52:00,30.0,24.3,29.98,WSW,247,0.0,0.0,79,0.00,,,0.00,WUHU21623XXSP,2013-03-26 07:52:00,
2013-03-26 03:57:00,30.0,24.3,29.99,WSW,247,0.0,0.0,79,0.00,,,0.00,WUHU21623XXSP,2013-03-26 07:57:00,
2013-03-26 04:02:00,29.8,24.6,29.98,West,270,0.0,0.0,80,0.00,,,0.00,WUHU21623XXSP,2013-03-26 08:02:00,
2013-03-26 04:07:00,29.8,24.4,29.98,West,270,0.0,0.0,80,0.00,,,0.00,WUHU21623XXSP,2013-03-26 08:07:00,
2013-03-26 04:12:00,29.8,24.4,29.98,West,270,0.0,0.0,80,0.00,,,0.00,WUHU21623XXSP,2013-03-26 08:12:00,
2013-03-26 04:17:00,29.8,24.4,29.98,West,270,0.0,0.0,80,0.00,,,0.00,WUHU21623XXSP,2013-03-26 08:17:00,
2013-03-26 04:22:00,29.7,24.3,29.97,West,270,0.0,0.0,80,0.00,,,0.00,WUHU21623XXSP,2013-03-26 08:22:00,
2013-03-26 04:27:00,29.5,24.4,29.97,West,270,0.0,0.0,81,0.00,,,0.00,WUHU21623XXSP,2013-03-26 08:27:00,
2013-03-26 04:32:00,29.5,24.4,29.97,West,270,0.0,0.0,81,0.00,,,0.00,WUHU21623XXSP,2013-03-26 08:32:00,
2013-03-26 04:40:00,29.5,24.4,29.97,West,270,0.0,2.2,81,0.00,,,0.00,WUHU21623XXSP,2013-03-26 08:40:00,
2013-03-26 04:45:00,29.5,24.7,29.97,West,270,0.0,0.0,82,0.00,,,0.00,WUHU21623XXSP,2013-03-26 08:45:00,
2013-03-26 04:50:00,29.5,24.7,29.97,West,270,0.0,0.0,82,0.00,,,0.00,WUHU21623XXSP,2013-03-26 08:50:00,
2013-03-26 04:55:00,29.5,24.7,29.97,West,270,0.0,0.0,82,0.00,,,0.00,WUHU21623XXSP,2013-03-26 08:55:00,
2013-03-26 05:00:00,29.5,24.7,29.97,West,270,0.0,0.0,82,0.00,,,0.00,WUHU21623XXSP,2013-03-26 09:00:00,
2013-03-26 05:05:00,29.5,24.7,29.97,West,270,0.0,0.0,82,0.00,,,0.00,WUHU21623XXSP,2013-03-26 09:05:00,
2013-03-26 05:10:00,29.5,24.7,29.97,West,270,0.0,0.0,82,0.00,,,0.00,WUHU21623XXSP,2013-03-26 09:10:00,
2013-03-26 05:15:00,29.5,24.7,29.97,West,270,0.0,0.0,82,0.00,,,0.00,WUHU21623XXSP,2013-03-26 09:15:00,
2013-03-26 05:20:00,29.5,24.7,29.97,West,270,2.9,2.9,82,0.00,,,0.00,WUHU21623XXSP,2013-03-26 09:20:00,
2013-03-26 05:25:00,29.5,24.7,29.97,West,270,0.0,2.9,82,0.00,,,0.00,WUHU21623XXSP,2013-03-26 09:25:00,
2013-03-26 05:30:00,29.5,24.7,29.97,West,270,0.0,0.0,82,0.00,,,0.00,WUHU21623XXSP,2013-03-26 09:30:00,
2013-03-26 05:35:00,29.5,24.7,29.97,West,270,0.0,0.0,82,0.00,,,0.00,WUHU21623XXSP,2013-03-26 09:35:00,
2013-03-26 05:40:00,29.5,24.7,29.97,West,270,0.0,0.0,82,0.00,,,0.00,WUHU21623XXSP,2013-03-26 09:40:00,
2013-03-26 05:45:00,29.5,24.7,29.97,West,270,0.0,0.0,82,0.00,,,0.00,WUHU21623XXSP,2013-03-26 09:45:00,
2013-03-26 05:50:00,29.5,24.7,29.97,West,270,0.0,0.0,82,0.00,,,0.00,WUHU21623XXSP,2013-03-26 09:50:00,
2013-03-26 05:55:00,29.7,24.7,29.97,West,270,0.0,0.0,82,0.00,,,0.00,WUHU21623XXSP,2013-03-26 09:55:00,
2013-03-26 06:00:00,29.7,24.8,29.97,West,270,0.0,0.0,82,0.00,,,0.00,WUHU21623XXSP,2013-03-26 10:00:00,
2013-03-26 06:05:00,29.7,24.8,29.97,West,270,0.0,0.0,82,0.00,,,0.00,WUHU21623XXSP,2013-03-26 10:05:00,
2013-03-26 06:10:00,29.7,24.8,29.97,West,270,0.0,0.0,82,0.00,,,0.00,WUHU21623XXSP,2013-03-26 10:10:00,
2013-03-26 06:15:00,29.7,24.8,29.97,West,270,0.0,0.0,82,0.00,,,0.00,WUHU21623XXSP,2013-03-26 10:15:00,
2013-03-26 06:20:00,29.8,25.0,29.97,West,270,0.0,0.0,82,0.00,,,0.00,WUHU21623XXSP,2013-03-26 10:20:00,
2013-03-26 06:25:00,29.8,24.7,29.97,West,270,0.0,0.0,81,0.00,,,0.00,WUHU21623XXSP,2013-03-26 10:25:00,
2013-03-26 06:30:00,29.8,24.7,29.97,West,270,0.0,0.0,81,0.00,,,0.00,WUHU21623XXSP,2013-03-26 10:30:00,
2013-03-26 06:35:00,29.8,24.4,29.97,West,270,0.0,0.0,80,0.00,,,0.00,WUHU21623XXSP,2013-03-26 10:35:00,
2013-03-26 06:40:00,30.0,24.6,29.97,West,270,0.0,0.0,80,0.00,,,0.00,WUHU21623XXSP,2013-03-26 10:40:00,
2013-03-26 06:45:00,30.0,24.6,29.97,West,270,0.0,0.0,80,0.00,,,0.00,WUHU21623XXSP,2013-03-26 10:45:00,
2013-03-26 06:50:00,30.0,24.3,29.98,West,270,0.0,0.0,79,0.00,,,0.00,WUHU21623XXSP,2013-03-26 10:50:00,
2013-03-26 06:55:00,30.0,24.3,29.98,West,270,0.0,0.0,78,0.00,,,0.00,WUHU21623XXSP,2013-03-26 10:55:00,
2013-03-26 07:00:00,30.0,24.0,29.98,West,270,0.0,0.0,78,0.00,,,0.00,WUHU21623XXSP,2013-03-26 11:00:00,
2013-03-26 07:05:00,30.0,24.0,29.98,West,270,0.0,0.0,78,0.00,,,0.00,WUHU21623XXSP,2013-03-26 11:05:00,
2013-03-26 07:10:00,30.0,24.0,29.98,West,270,0.0,0.0,78,0.00,,,0.00,WUHU21623XXSP,2013-03-26 11:10:00,
2013-03-26 07:15:00,30.0,24.0,29.99,West,270,0.0,0.0,78,0.00,,,0.00,WUHU21623XXSP,2013-03-26 11:15:00,
2013-03-26 07:20:00,30.0,24.0,29.99,West,270,0.0,0.0,77,0.00,,,0.00,WUHU21623XXSP,2013-03-26 11:20:00,
2013-03-26 07:25:00,30.0,24.0,29.99,West,270,0.0,0.0,78,0.00,,,0.00,WUHU21623XXSP,2013-03-26 11:25:00,
2013-03-26 07:30:00,30.2,24.0,29.99,West,270,0.0,0.0,78,0.00,,,0.00,WUHU21623XXSP,2013-03-26 11:30:00,
2013-03-26 07:35:00,30.0,23.6,29.99,West,270,0.0,0.0,77,0.00,,,0.00,WUHU21623XXSP,2013-03-26 11:35:00,
2013-03-26 07:40:00,30.2,23.8,29.99,West,270,0.0,0.0,77,0.00,,,0.00,WUHU21623XXSP,2013-03-26 11:40:00,
2013-03-26 07:45:00,30.4,24.0,29.99,West,270,0.0,0.0,77,0.00,,,0.00,WUHU21623XXSP,2013-03-26 11:45:00,
2013-03-26 07:50:00,30.4,24.0,30.00,West,270,0.0,0.0,77,0.00,,,0.00,WUHU21623XXSP,2013-03-26 11:50:00,
2013-03-26 07:55:00,30.4,24.0,30.00,West,270,0.0,0.0,77,0.00,,,0.00,WUHU21623XXSP,2013-03-26 11:55:00,
2013-03-26 08:00:00,30.4,24.0,30.00,West,270,0.0,0.0,77,0.00,,,0.00,WUHU21623XXSP,2013-03-26 12:00:00,
2013-03-26 08:05:00,30.6,24.2,30.00,West,270,0.0,0.0,77,0.00,,,0.00,WUHU21623XXSP,2013-03-26 12:05:00,
2013-03-26 08:10:00,30.6,24.2,30.01,West,270,0.0,0.0,77,0.00,,,0.00,WUHU21623XXSP,2013-03-26 12:10:00,
2013-03-26 08:15:00,30.6,24.2,30.01,West,270,0.0,0.0,77,0.00,,,0.00,WUHU21623XXSP,2013-03-26 12:15:00,
2013-03-26 08:20:00,30.6,24.0,30.01,West,270,0.0,0.0,77,0.00,,,0.00,WUHU21623XXSP,2013-03-26 12:20:00,
2013-03-26 08:25:00,30.6,24.2,30.01,West,270,0.0,0.0,77,0.00,,,0.00,WUHU21623XXSP,2013-03-26 12:25:00,
2013-03-26 08:31:00,30.7,24.2,30.02,West,270,0.0,0.0,77,0.00,,,0.00,WUHU21623XXSP,2013-03-26 12:31:00,
2013-03-26 08:36:00,30.7,24.4,30.02,West,270,1.1,1.1,77,0.00,,,0.00,WUHU21623XXSP,2013-03-26 12:36:00,
2013-03-26 08:41:00,30.7,24.4,30.02,West,270,0.0,1.1,77,0.00,,,0.00,WUHU21623XXSP,2013-03-26 12:41:00,
2013-03-26 08:46:00,30.9,24.5,30.02,West,270,0.0,0.0,77,0.00,,,0.00,WUHU21623XXSP,2013-03-26 12:46:00,
2013-03-26 08:51:00,31.1,24.5,30.02,West,270,0.0,0.0,77,0.00,,,0.00,WUHU21623XXSP,2013-03-26 12:51:00,
2013-03-26 08:56:00,30.9,24.9,30.02,West,270,0.0,0.0,78,0.00,,,0.00,WUHU21623XXSP,2013-03-26 12:56:00,
2013-03-26 09:01:00,31.1,25.1,30.03,West,270,0.0,0.0,78,0.00,,,0.00,WUHU21623XXSP,2013-03-26 13:01:00,
2013-03-26 09:06:00,31.3,25.2,30.03,West,270,0.0,0.0,78,0.00,,,0.00,WUHU21623XXSP,2013-03-26 13:06:00,
2013-03-26 09:11:00,31.6,25.6,30.04,West,270,0.0,0.0,78,0.00,,,0.00,WUHU21623XXSP,2013-03-26 13:11:00,
2013-03-26 09:16:00,31.8,25.8,30.04,West,270,0.0,0.0,78,0.00,,,0.00,WUHU21623XXSP,2013-03-26 13:16:00,
2013-03-26 09:21:00,31.8,25.8,30.04,West,270,0.0,0.0,78,0.00,,,0.00,WUHU21623XXSP,2013-03-26 13:21:00,
2013-03-26 09:26:00,31.8,25.8,30.04,West,270,0.0,0.0,78,0.00,,,0.00,WUHU21623XXSP,2013-03-26 13:26:00,
2013-03-26 09:31:00,32.2,26.0,30.04,West,270,0.0,0.0,78,0.00,,,0.00,WUHU21623XXSP,2013-03-26 13:31:00,
2013-03-26 09:36:00,32.2,26.1,30.04,West,270,0.0,0.0,78,0.00,,,0.00,WUHU21623XXSP,2013-03-26 13:36:00,
2013-03-26 09:41:00,32.4,26.1,30.04,West,270,0.0,0.0,78,0.00,,,0.00,WUHU21623XXSP,2013-03-26 13:41:00,
2013-03-26 09:46:00,32.7,26.8,30.05,West,270,0.0,0.0,79,0.00,,,0.00,WUHU21623XXSP,2013-03-26 13:46:00,
2013-03-26 09:51:00,32.9,26.9,30.05,West,270,0.0,0.0,79,0.00,,,0.00,WUHU21623XXSP,2013-03-26 13:51:00,
2013-03-26 09:56:00,32.9,26.6,30.05,West,270,0.0,0.0,78,0.00,,,0.00,WUHU21623XXSP,2013-03-26 13:56:00,
2013-03-26 10:01:00,33.1,26.9,30.05,West,270,0.0,0.0,78,0.00,,,0.00,WUHU21623XXSP,2013-03-26 14:01:00,
2013-03-26 10:06:00,33.4,26.9,30.05,West,270,0.0,0.0,78,0.00,,,0.00,WUHU21623XXSP,2013-03-26 14:06:00,
2013-03-26 10:11:00,33.6,27.1,30.05,West,270,0.0,0.0,77,0.00,,,0.00,WUHU21623XXSP,2013-03-26 14:11:00,
2013-03-26 10:16:00,34.0,27.4,30.05,West,270,0.0,0.0,77,0.00,,,0.00,WUHU21623XXSP,2013-03-26 14:16:00,
2013-03-26 10:21:00,34.2,27.6,30.05,West,270,0.0,0.0,77,0.00,,,0.00,WUHU21623XXSP,2013-03-26 14:21:00,
2013-03-26 10:26:00,34.3,27.5,30.06,West,270,0.0,0.0,75,0.00,,,0.00,WUHU21623XXSP,2013-03-26 14:26:00,
2013-03-26 10:31:00,34.5,27.3,30.06,West,270,0.0,0.0,75,0.00,,,0.00,WUHU21623XXSP,2013-03-26 14:31:00,
2013-03-26 10:36:00,34.9,27.4,30.06,West,270,0.0,0.0,74,0.00,,,0.00,WUHU21623XXSP,2013-03-26 14:36:00,
2013-03-26 10:42:00,35.2,27.7,30.06,West,270,0.0,0.0,74,0.00,,,0.00,WUHU21623XXSP,2013-03-26 14:42:00,
2013-03-26 10:47:00,36.1,27.9,30.06,West,270,0.0,0.0,73,0.00,,,0.00,WUHU21623XXSP,2013-03-26 14:47:00,
2013-03-26 10:52:00,37.2,29.0,30.06,West,270,5.1,5.1,72,0.00,,,0.00,WUHU21623XXSP,2013-03-26 14:52:00,
2013-03-26 10:57:00,37.6,29.1,30.07,WNW,292,4.3,5.1,72,0.00,,,0.00,WUHU21623XXSP,2013-03-26 14:57:00,
2013-03-26 11:02:00,37.8,28.5,30.07,NNE,22,0.0,4.3,69,0.00,,,0.00,WUHU21623XXSP,2013-03-26 15:02:00,
2013-03-26 11:07:00,37.9,28.3,30.07,North,0,0.0,2.5,68,0.00,,,0.00,WUHU21623XXSP,2013-03-26 15:07:00,
2013-03-26 11:12:00,37.6,27.2,30.08,North,0,0.0,0.0,66,0.00,,,0.00,WUHU21623XXSP,2013-03-26 15:12:00,
2013-03-26 11:17:00,37.2,26.9,30.08,North,0,1.3,1.6,66,0.00,,,0.00,WUHU21623XXSP,2013-03-26 15:17:00,
2013-03-26 11:22:00,37.0,26.7,30.08,North,0,0.0,1.6,67,0.00,,,0.00,WUHU21623XXSP,2013-03-26 15:22:00,
2013-03-26 11:27:00,37.0,27.1,30.08,North,0,0.0,0.0,67,0.00,,,0.00,WUHU21623XXSP,2013-03-26 15:27:00,
2013-03-26 11:32:00,36.5,26.9,30.09,North,0,0.0,0.0,68,0.00,,,0.00,WUHU21623XXSP,2013-03-26 15:32:00,
2013-03-26 11:37:00,36.5,26.9,30.09,NNW,337,1.3,1.3,68,0.00,,,0.00,WUHU21623XXSP,2013-03-26 15:37:00,
2013-03-26 11:42:00,36.3,26.8,30.09,NNW,337,1.3,1.3,67,0.00,,,0.00,WUHU21623XXSP,2013-03-26 15:42:00,
2013-03-26 11:47:00,36.5,27.3,30.09,West,270,0.0,1.3,69,0.00,,,0.00,WUHU21623XXSP,2013-03-26 15:47:00,
2013-03-26 11:52:00,37.2,27.7,30.09,West,270,0.0,0.0,69,0.00,,,0.00,WUHU21623XXSP,2013-03-26 15:52:00,
2013-03-26 11:57:00,38.3,28.5,30.09,West,270,0.0,0.0,69,0.00,,,0.00,WUHU21623XXSP,2013-03-26 15:57:00,
2013-03-26 12:02:00,39.7,29.6,30.09,West,270,0.0,0.0,68,0.00,,,0.00,WUHU21623XXSP,2013-03-26 16:02:00,
2013-03-26 12:07:00,39.7,30.0,30.09,West,270,0.0,0.0,68,0.00,,,0.00,WUHU21623XXSP,2013-03-26 16:07:00,
2013-03-26 12:12:00,39.7,30.4,30.09,WSW,247,0.0,0.0,69,0.00,,,0.00,WUHU21623XXSP,2013-03-26 16:12:00,
2013-03-26 12:17:00,39.7,31.1,30.09,WSW,247,0.0,2.9,71,0.00,,,0.00,WUHU21623XXSP,2013-03-26 16:17:00,
2013-03-26 12:22:00,39.4,30.9,30.10,West,270,0.0,2.9,71,0.00,,,0.00,WUHU21623XXSP,2013-03-26 16:22:00,
2013-03-26 12:27:00,39.0,30.0,30.10,West,270,0.0,0.0,70,0.00,,,0.00,WUHU21623XXSP,2013-03-26 16:27:00,
2013-03-26 12:32:00,38.8,29.9,30.10,West,270,0.0,0.0,69,0.00,,,0.00,WUHU21623XXSP,2013-03-26 16:32:00,
2013-03-26 12:37:00,38.8,29.5,30.10,West,270,0.0,0.0,69,0.00,,,0.00,WUHU21623XXSP,2013-03-26 16:37:00,
2013-03-26 12:42:00,38.5,29.3,30.10,West,270,0.0,0.0,69,0.00,,,0.00,WUHU21623XXSP,2013-03-26 16:42:00,
2013-03-26 12:47:00,37.9,28.9,30.10,West,270,0.0,0.0,69,0.00,,,0.00,WUHU21623XXSP,2013-03-26 16:47:00,
2013-03-26 12:52:00,37.9,28.7,30.10,West,270,0.0,0.0,69,0.00,,,0.00,WUHU21623XXSP,2013-03-26 16:52:00,
2013-03-26 12:57:00,38.3,28.9,30.10,West,270,0.0,0.0,69,0.00,,,0.00,WUHU21623XXSP,2013-03-26 16:57:00,
2013-03-26 13:02:00,39.4,30.0,30.10,West,270,0.0,0.0,70,0.00,,,0.00,WUHU21623XXSP,2013-03-26 17:02:00,
2013-03-26 13:07:00,39.6,30.2,30.10,WSW,247,0.0,0.0,69,0.00,,,0.00,WUHU21623XXSP,2013-03-26 17:07:00,
2013-03-26 13:12:00,39.4,30.0,30.10,WSW,247,0.0,0.0,69,0.00,,,0.00,WUHU21623XXSP,2013-03-26 17:12:00,
2013-03-26 13:17:00,37.9,28.7,30.10,WSW,247,0.0,1.1,69,0.00,,,0.00,WUHU21623XXSP,2013-03-26 17:17:00,
2013-03-26 13:22:00,37.2,28.7,30.10,WSW,247,0.0,1.1,71,0.00,,,0.00,WUHU21623XXSP,2013-03-26 17:22:00,
2013-03-26 13:27:00,36.7,28.2,30.11,WSW,247,0.0,0.0,71,0.00,,,0.00,WUHU21623XXSP,2013-03-26 17:27:00,
2013-03-26 13:32:00,36.3,28.1,30.11,West,270,0.0,0.0,72,0.00,,,0.00,WUHU21623XXSP,2013-03-26 17:32:00,
2013-03-26 13:37:00,36.5,28.7,30.11,West,270,0.0,0.0,73,0.00,,,0.00,WUHU21623XXSP,2013-03-26 17:37:00,
2013-03-26 13:42:00,37.2,29.2,30.11,West,270,0.0,0.0,74,0.00,,,0.00,WUHU21623XXSP,2013-03-26 17:42:00,
2013-03-26 13:47:00,39.0,30.2,30.11,West,270,0.0,0.0,73,0.00,,,0.00,WUHU21623XXSP,2013-03-26 17:47:00,
2013-03-26 13:52:00,40.6,32.3,30.10,WSW,247,0.0,0.0,72,0.00,,,0.00,WUHU21623XXSP,2013-03-26 17:52:00,
2013-03-26 13:57:00,41.5,32.5,30.10,North,0,0.0,0.0,68,0.00,,,0.00,WUHU21623XXSP,2013-03-26 17:57:00,
2013-03-26 14:02:00,41.7,31.2,30.10,North,0,0.0,0.0,66,0.00,,,0.00,WUHU21623XXSP,2013-03-26 18:02:00,
2013-03-26 14:07:00,42.1,31.0,30.10,North,0,3.1,3.1,65,0.00,,,0.00,WUHU21623XXSP,2013-03-26 18:07:00,
2013-03-26 14:12:00,42.6,31.1,30.10,North,0,0.0,3.1,63,0.00,,,0.00,WUHU21623XXSP,2013-03-26 18:12:00,
2013-03-26 14:17:00,42.4,30.5,30.10,North,0,0.0,0.0,61,0.00,,,0.00,WUHU21623XXSP,2013-03-26 18:17:00,
2013-03-26 14:22:00,41.9,30.1,30.11,NNE,22,0.0,0.0,63,0.00,,,0.00,WUHU21623XXSP,2013-03-26 18:22:00,
2013-03-26 14:27:00,41.7,30.4,30.11,North,0,0.0,0.0,64,0.00,,,0.00,WUHU21623XXSP,2013-03-26 18:27:00,
2013-03-26 14:32:00,41.5,30.4,30.11,WSW,247,0.0,0.0,64,0.00,,,0.00,WUHU21623XXSP,2013-03-26 18:32:00,
2013-03-26 14:37:00,40.8,29.9,30.11,WSW,247,0.0,0.0,64,0.00,,,0.00,WUHU21623XXSP,2013-03-26 18:37:00,
2013-03-26 14:42:00,39.4,28.9,30.12,WSW,247,0.0,0.0,66,0.00,,,0.00,WUHU21623XXSP,2013-03-26 18:42:00,
2013-03-26 14:47:00,38.5,28.4,30.12,WSW,247,1.3,1.3,67,0.00,,,0.00,WUHU21623XXSP,2013-03-26 18:47:00,
2013-03-26 14:52:00,37.9,28.3,30.12,WSW,247,1.3,1.3,68,0.00,,,0.00,WUHU21623XXSP,2013-03-26 18:52:00,
2013-03-26 14:57:00,37.9,28.7,30.12,WSW,247,0.0,1.3,69,0.00,,,0.00,WUHU21623XXSP,2013-03-26 18:57:00,
2013-03-26 15:02:00,37.9,29.1,30.12,WSW,247,0.0,0.0,70,0.00,,,0.00,WUHU21623XXSP,2013-03-26 19:02:00,
2013-03-26 15:07:00,38.1,29.2,30.12,WSW,247,0.0,0.0,70,0.00,,,0.00,WUHU21623XXSP,2013-03-26 19:07:00,
2013-03-26 15:12:00,37.8,28.7,30.12,WSW,247,0.0,0.0,69,0.00,,,0.00,WUHU21623XXSP,2013-03-26 19:12:00,
2013-03-26 15:17:00,37.4,28.6,30.12,WSW,247,0.0,0.0,70,0.00,,,0.00,WUHU21623XXSP,2013-03-26 19:17:00,
2013-03-26 15:22:00,37.2,28.7,30.11,WSW,247,0.0,0.0,71,0.00,,,0.00,WUHU21623XXSP,2013-03-26 19:22:00,
2013-03-26 15:27:00,38.1,29.6,30.11,WSW,247,0.0,0.0,72,0.00,,,0.00,WUHU21623XXSP,2013-03-26 19:27:00,
2013-03-26 15:32:00,39.6,30.9,30.11,WSW,247,0.0,0.0,71,0.00,,,0.00,WUHU21623XXSP,2013-03-26 19:32:00,
2013-03-26 15:37:00,40.5,31.5,30.11,WSW,247,0.0,0.0,70,0.00,,,0.00,WUHU21623XXSP,2013-03-26 19:37:00,
2013-03-26 15:42:00,40.1,30.0,30.11,WSW,247,1.3,1.8,67,0.00,,,0.00,WUHU21623XXSP,2013-03-26 19:42:00,
2013-03-26 15:47:00,39.4,29.6,30.12,WSW,247,0.0,1.8,66,0.00,,,0.00,WUHU21623XXSP,2013-03-26 19:47:00,
2013-03-26 15:52:00,38.3,28.4,30.12,WNW,292,4.0,4.0,66,0.00,,,0.00,WUHU21623XXSP,2013-03-26 19:52:00,
2013-03-26 15:57:00,37.0,27.5,30.12,WNW,292,1.6,4.0,68,0.00,,,0.00,WUHU21623XXSP,2013-03-26 19:57:00,
2013-03-26 16:02:00,36.1,27.3,30.12,WNW,292,0.0,1.6,70,0.00,,,0.00,WUHU21623XXSP,2013-03-26 20:02:00,
2013-03-26 16:07:00,35.4,26.9,30.12,West,270,2.9,3.4,71,0.00,,,0.00,WUHU21623XXSP,2013-03-26 20:07:00,
2013-03-26 16:12:00,35.4,27.6,30.12,West,270,0.0,3.4,73,0.00,,,0.00,WUHU21623XXSP,2013-03-26 20:12:00,
2013-03-26 16:17:00,35.8,28.3,30.12,West,270,0.0,0.0,74,0.00,,,0.00,WUHU21623XXSP,2013-03-26 20:17:00,
2013-03-26 16:22:00,36.9,28.8,30.12,West,270,0.0,0.0,74,0.00,,,0.00,WUHU21623XXSP,2013-03-26 20:22:00,
2013-03-26 16:27:00,37.9,30.0,30.12,NNW,337,0.0,0.0,73,0.00,,,0.00,WUHU21623XXSP,2013-03-26 20:27:00,
2013-03-26 16:32:00,38.5,30.4,30.12,WNW,292,0.0,0.0,71,0.00,,,0.00,WUHU21623XXSP,2013-03-26 20:32:00,
2013-03-26 16:37:00,38.5,29.6,30.12,West,270,0.0,0.0,70,0.00,,,0.00,WUHU21623XXSP,2013-03-26 20:37:00,
2013-03-26 16:42:00,38.1,28.9,30.12,NNW,337,0.0,0.0,69,0.00,,,0.00,WUHU21623XXSP,2013-03-26 20:42:00,
2013-03-26 16:47:00,38.3,29.0,30.12,NNW,337,0.0,0.0,69,0.00,,,0.00,WUHU21623XXSP,2013-03-26 20:47:00,
2013-03-26 16:52:00,38.5,29.0,30.12,NNW,337,0.0,0.0,69,0.00,,,0.00,WUHU21623XXSP,2013-03-26 20:52:00,
2013-03-26 16:57:00,39.0,29.3,30.12,West,270,0.0,0.0,68,0.00,,,0.00,WUHU21623XXSP,2013-03-26 20:57:00,
2013-03-26 17:02:00,39.9,29.6,30.12,West,270,0.0,0.0,70,0.00,,,0.00,WUHU21623XXSP,2013-03-26 21:02:00,
2013-03-26 17:07:00,40.6,30.1,30.12,WSW,247,0.0,0.0,66,0.00,,,0.00,WUHU21623XXSP,2013-03-26 21:07:00,
2013-03-26 17:12:00,40.3,29.4,30.12,WSW,247,0.0,0.0,65,0.00,,,0.00,WUHU21623XXSP,2013-03-26 21:12:00,
2013-03-26 17:17:00,39.7,29.2,30.12,West,270,0.0,0.0,65,0.00,,,0.00,WUHU21623XXSP,2013-03-26 21:17:00,
2013-03-26 17:22:00,39.4,28.1,30.12,West,270,3.4,3.4,64,0.00,,,0.00,WUHU21623XXSP,2013-03-26 21:22:00,
2013-03-26 17:27:00,38.5,27.3,30.12,West,270,0.0,3.4,65,0.00,,,0.00,WUHU21623XXSP,2013-03-26 21:27:00,
2013-03-26 17:32:00,38.1,27.0,30.12,West,270,0.0,2.9,64,0.00,,,0.00,WUHU21623XXSP,2013-03-26 21:32:00,
2013-03-26 17:37:00,37.8,26.6,30.12,North,0,5.8,5.8,64,0.00,,,0.00,WUHU21623XXSP,2013-03-26 21:37:00,
2013-03-26 17:42:00,37.2,26.5,30.13,West,270,6.0,6.0,65,0.00,,,0.00,WUHU21623XXSP,2013-03-26 21:42:00,
2013-03-26 17:48:00,37.0,26.3,30.13,West,270,0.0,6.0,65,0.00,,,0.00,WUHU21623XXSP,2013-03-26 21:48:00,
2013-03-26 17:53:00,36.7,26.0,30.12,West,270,0.0,0.0,65,0.00,,,0.00,WUHU21623XXSP,2013-03-26 21:53:00,
2013-03-26 17:58:00,36.7,26.4,30.13,West,270,0.0,0.0,66,0.00,,,0.00,WUHU21623XXSP,2013-03-26 21:58:00,
2013-03-26 18:03:00,36.3,26.0,30.13,West,270,0.0,0.0,66,0.00,,,0.00,WUHU21623XXSP,2013-03-26 22:03:00,
2013-03-26 18:08:00,36.3,26.4,30.13,West,270,0.0,0.0,67,0.00,,,0.00,WUHU21623XXSP,2013-03-26 22:08:00,
2013-03-26 18:13:00,36.3,26.4,30.13,West,270,0.0,0.0,66,0.00,,,0.00,WUHU21623XXSP,2013-03-26 22:13:00,
2013-03-26 18:18:00,36.3,26.0,30.13,West,270,0.0,0.0,66,0.00,,,0.00,WUHU21623XXSP,2013-03-26 22:18:00,
2013-03-26 18:23:00,36.1,26.4,30.14,West,270,0.0,0.0,67,0.00,,,0.00,WUHU21623XXSP,2013-03-26 22:23:00,
2013-03-26 18:28:00,36.0,25.8,30.14,WNW,292,0.0,0.0,66,0.00,,,0.00,WUHU21623XXSP,2013-03-26 22:28:00,
2013-03-26 18:33:00,35.8,25.9,30.14,WNW,292,0.0,0.0,67,0.00,,,0.00,WUHU21623XXSP,2013-03-26 22:33:00,
2013-03-26 18:38:00,35.4,25.7,30.14,WNW,292,0.0,0.0,67,0.00,,,0.00,WUHU21623XXSP,2013-03-26 22:38:00,
2013-03-26 18:43:00,35.4,25.5,30.14,WNW,292,0.0,0.0,67,0.00,,,0.00,WUHU21623XXSP,2013-03-26 22:43:00,
2013-03-26 18:48:00,35.2,25.5,30.14,WNW,292,0.0,0.0,67,0.00,,,0.00,WUHU21623XXSP,2013-03-26 22:48:00,
2013-03-26 18:53:00,35.4,25.5,30.15,WNW,292,2.9,2.9,67,0.00,,,0.00,WUHU21623XXSP,2013-03-26 22:53:00,
2013-03-26 18:58:00,35.2,25.3,30.15,West,270,0.0,2.9,67,0.00,,,0.00,WUHU21623XXSP,2013-03-26 22:58:00,
2013-03-26 19:03:00,35.4,25.5,30.15,West,270,0.0,0.0,67,0.00,,,0.00,WUHU21623XXSP,2013-03-26 23:03:00,
2013-03-26 19:08:00,35.2,25.5,30.15,West,270,0.0,0.0,67,0.00,,,0.00,WUHU21623XXSP,2013-03-26 23:08:00,
2013-03-26 19:13:00,35.2,25.3,30.15,West,270,0.0,0.0,67,0.00,,,0.00,WUHU21623XXSP,2013-03-26 23:13:00,
2013-03-26 19:18:00,35.2,25.3,30.15,West,270,0.0,0.0,67,0.00,,,0.00,WUHU21623XXSP,2013-03-26 23:18:00,
2013-03-26 19:23:00,34.9,25.2,30.15,West,270,0.0,0.0,67,0.00,,,0.00,WUHU21623XXSP,2013-03-26 23:23:00,
2013-03-26 19:28:00,34.9,25.0,30.15,West,270,0.0,0.0,67,0.00,,,0.00,WUHU21623XXSP,2013-03-26 23:28:00,
2013-03-26 19:33:00,34.9,25.0,30.15,West,270,0.0,0.0,67,0.00,,,0.00,WUHU21623XXSP,2013-03-26 23:33:00,
2013-03-26 19:38:00,34.9,25.0,30.16,West,270,0.0,0.0,67,0.00,,,0.00,WUHU21623XXSP,2013-03-26 23:38:00,
2013-03-26 19:43:00,34.7,24.8,30.16,West,270,0.0,0.0,67,0.00,,,0.00,WUHU21623XXSP,2013-03-26 23:43:00,
2013-03-26 19:48:00,34.5,25.2,30.16,West,270,0.0,0.0,68,0.00,,,0.00,WUHU21623XXSP,2013-03-26 23:48:00,
2013-03-26 19:53:00,34.3,24.8,30.16,West,270,0.0,0.0,69,0.00,,,0.00,WUHU21623XXSP,2013-03-26 23:53:00,
2013-03-26 19:58:00,34.3,25.2,30.17,West,270,0.0,0.0,69,0.00,,,0.00,WUHU21623XXSP,2013-03-26 23:58:00,
2013-03-26 20:03:00,34.3,25.2,30.17,West,270,0.0,0.0,69,0.00,,,0.00,WUHU21623XXSP,2013-03-27 00:03:00,
2013-03-26 20:08:00,34.3,25.2,30.17,West,270,0.0,0.0,69,0.00,,,0.00,WUHU21623XXSP,2013-03-27 00:08:00,
2013-03-26 20:13:00,34.3,25.2,30.17,West,270,0.0,0.0,69,0.00,,,0.00,WUHU21623XXSP,2013-03-27 00:13:00,
2013-03-26 20:18:00,34.3,25.2,30.17,West,270,0.0,0.0,69,0.00,,,0.00,WUHU21623XXSP,2013-03-27 00:18:00,
2013-03-26 20:23:00,34.0,25.0,30.17,West,270,0.0,0.0,69,0.00,,,0.00,WUHU21623XXSP,2013-03-27 00:23:00,
2013-03-26 20:28:00,34.0,24.8,30.17,West,270,0.0,0.0,69,0.00,,,0.00,WUHU21623XXSP,2013-03-27 00:28:00,
2013-03-26 20:33:00,33.8,24.6,30.17,West,270,0.0,0.0,69,0.00,,,0.00,WUHU21623XXSP,2013-03-27 00:33:00,
2013-03-26 20:38:00,33.6,24.5,30.17,West,270,0.0,0.0,69,0.00,,,0.00,WUHU21623XXSP,2013-03-27 00:38:00,
2013-03-26 20:43:00,33.6,24.5,30.17,West,270,0.0,0.0,69,0.00,,,0.00,WUHU21623XXSP,2013-03-27 00:43:00,
2013-03-26 20:48:00,33.6,24.8,30.18,West,270,0.0,0.0,70,0.00,,,0.00,WUHU21623XXSP,2013-03-27 00:48:00,
2013-03-26 20:53:00,33.6,25.1,30.18,West,270,0.0,0.0,70,0.00,,,0.00,WUHU21623XXSP,2013-03-27 00:53:00,
2013-03-26 20:59:00,33.6,25.1,30.18,West,270,0.0,0.0,71,0.00,,,0.00,WUHU21623XXSP,2013-03-27 00:59:00,
2013-03-26 21:04:00,33.6,25.1,30.18,West,270,0.0,0.0,71,0.00,,,0.00,WUHU21623XXSP,2013-03-27 01:04:00,
2013-03-26 21:09:00,33.6,25.1,30.18,West,270,0.0,0.0,71,0.00,,,0.00,WUHU21623XXSP,2013-03-27 01:09:00,
2013-03-26 21:14:00,33.6,25.1,30.18,West,270,0.0,0.0,71,0.00,,,0.00,WUHU21623XXSP,2013-03-27 01:14:00,
2013-03-26 21:19:00,33.6,25.1,30.18,West,270,0.0,0.0,71,0.00,,,0.00,WUHU21623XXSP,2013-03-27 01:19:00,
2013-03-26 21:24:00,33.6,25.1,30.18,West,270,0.0,0.0,72,0.00,,,0.00,WUHU21623XXSP,2013-03-27 01:24:00,
2013-03-26 21:29:00,33.6,25.1,30.19,West,270,0.0,0.0,71,0.00,,,0.00,WUHU21623XXSP,2013-03-27 01:29:00,
2013-03-26 21:34:00,33.6,25.5,30.19,West,270,0.0,3.4,72,0.00,,,0.00,WUHU21623XXSP,2013-03-27 01:34:00,
2013-03-26 21:39:00,33.6,25.5,30.19,West,270,0.0,3.4,72,0.00,,,0.00,WUHU21623XXSP,2013-03-27 01:39:00,
2013-03-26 21:44:00,33.6,25.5,30.19,West,270,0.0,0.0,72,0.00,,,0.00,WUHU21623XXSP,2013-03-27 01:44:00,
2013-03-26 21:49:00,33.4,25.3,30.20,West,270,0.0,0.0,72,0.00,,,0.00,WUHU21623XXSP,2013-03-27 01:49:00,
2013-03-26 21:54:00,33.4,25.6,30.20,West,270,0.0,0.0,73,0.00,,,0.00,WUHU21623XXSP,2013-03-27 01:54:00,
2013-03-26 21:59:00,33.3,25.1,30.20,West,270,0.0,0.0,72,0.00,,,0.00,WUHU21623XXSP,2013-03-27 01:59:00,
2013-03-26 22:04:00,33.1,25.5,30.20,West,270,0.0,0.0,73,0.00,,,0.00,WUHU21623XXSP,2013-03-27 02:04:00,
2013-03-26 22:09:00,33.1,25.3,30.20,West,270,0.0,0.0,73,0.00,,,0.00,WUHU21623XXSP,2013-03-27 02:09:00,
2013-03-26 22:14:00,33.1,25.3,30.20,West,270,0.0,0.0,73,0.00,,,0.00,WUHU21623XXSP,2013-03-27 02:14:00,
2013-03-26 22:19:00,32.9,25.1,30.21,West,270,0.0,0.0,73,0.00,,,0.00,WUHU21623XXSP,2013-03-27 02:19:00,
2013-03-26 22:24:00,32.9,25.1,30.21,West,270,0.0,0.0,73,0.00,,,0.00,WUHU21623XXSP,2013-03-27 02:24:00,
2013-03-26 22:29:00,32.9,25.1,30.21,West,270,0.0,0.0,73,0.00,,,0.00,WUHU21623XXSP,2013-03-27 02:29:00,
2013-03-26 22:34:00,32.7,25.3,30.21,West,270,0.0,0.0,74,0.00,,,0.00,WUHU21623XXSP,2013-03-27 02:34:00,
2013-03-26 22:39:00,32.7,25.3,30.21,West,270,0.0,0.0,74,0.00,,,0.00,WUHU21623XXSP,2013-03-27 02:39:00,
2013-03-26 22:44:00,32.7,25.3,30.21,West,270,0.0,0.0,74,0.00,,,0.00,WUHU21623XXSP,2013-03-27 02:44:00,
2013-03-26 22:49:00,32.7,25.3,30.21,West,270,0.0,0.0,74,0.00,,,0.00,WUHU21623XXSP,2013-03-27 02:49:00,
2013-03-26 22:54:00,32.7,25.3,30.21,West,270,0.0,0.0,74,0.00,,,0.00,WUHU21623XXSP,2013-03-27 02:54:00,
2013-03-26 22:59:00,32.7,25.3,30.21,West,270,0.0,0.0,74,0.00,,,0.00,WUHU21623XXSP,2013-03-27 02:59:00,
2013-03-26 23:04:00,32.7,25.3,30.21,West,270,0.0,0.0,74,0.00,,,0.00,WUHU21623XXSP,2013-03-27 03:04:00,
2013-03-26 23:09:00,32.7,25.3,30.21,West,270,0.0,0.0,75,0.00,,,0.00,WUHU21623XXSP,2013-03-27 03:09:00,
2013-03-26 23:14:00,32.7,25.6,30.22,West,270,0.0,0.0,75,0.00,,,0.00,WUHU21623XXSP,2013-03-27 03:14:00,
2013-03-26 23:19:00,32.7,25.6,30.21,West,270,0.7,0.7,75,0.00,,,0.00,WUHU21623XXSP,2013-03-27 03:19:00,
2013-03-26 23:24:00,32.7,25.6,30.21,West,270,0.0,0.7,75,0.00,,,0.00,WUHU21623XXSP,2013-03-27 03:24:00,
2013-03-26 23:29:00,32.7,25.6,30.22,West,270,0.0,0.0,75,0.00,,,0.00,WUHU21623XXSP,2013-03-27 03:29:00,
2013-03-26 23:34:00,32.7,25.6,30.21,West,270,0.0,0.0,75,0.00,,,0.00,WUHU21623XXSP,2013-03-27 03:34:00,
2013-03-26 23:39:00,32.7,25.6,30.22,West,270,0.0,0.0,75,0.00,,,0.00,WUHU21623XXSP,2013-03-27 03:39:00,
2013-03-26 23:44:00,32.7,25.6,30.21,West,270,0.0,0.0,75,0.00,,,0.00,WUHU21623XXSP,2013-03-27 03:44:00,
2013-03-26 23:49:00,32.7,25.6,30.21,West,270,0.0,0.0,75,0.00,,,0.00,WUHU21623XXSP,2013-03-27 03:49:00,
2013-03-26 23:54:00,32.7,25.6,30.21,West,270,0.0,0.0,75,0.00,,,0.00,WUHU21623XXSP,2013-03-27 03:54:00,
2013-03-26 23:59:00,32.7,25.6,30.21,West,270,0.0,0.0,75,0.00,,,0.00,WUHU21623XXSP,2013-03-27 03:59:00,